Change the Weather History Date:

Tuesday, August 20, 2013

  Actual Average Record
Temperature  
Mean Temperature 74 °F -  
Max Temperature 86 °F 78 °F 95 °F (1983)
Min Temperature 62 °F 59 °F 43 °F (1976)
Cooling Degree Days 9    
Growing Degree Days 24 (Base 50)    
Moisture  
Dew Point 62 °F    
Average Humidity 72    
Maximum Humidity 99    
Minimum Humidity 39    
Precipitation  
Precipitation 0.00 in - - ()
Sea Level Pressure  
Sea Level Pressure 30.04 in    
Wind  
Wind Speed 4 mph (WSW)    
Max Wind Speed 7 mph    
Max Gust Speed -    
Visibility 10 miles    
Events      
Averages and records for this station are not official NWS values.
T = Trace of Precipitation, MM = Missing Value Source: NWS Daily Summary

Daily Weather History Graph

Daily Weather History Graph

Search for Another Location

Airport or City:

Trip Planner

Search our weather history database for the weather conditions in past years. The results will help you decide how hot, cold, wet, or windy it might be!

Date:

Astronomy

Aug. 20, 2013 Rise Set
Actual Time 5:54 AM EDT 7:37 PM EDT
Civil Twilight 5:24 AM EDT 8:07 PM EDT
Nautical Twilight 4:47 AM EDT 8:44 PM EDT
Astronomical Twilight 4:08 AM EDT 9:23 PM EDT
Moon 7:05 PM EDT (8/20) 5:21 AM EDT (8/20)
Length of Visible Light 14h 43m
Length of Day
13h 42m
Full, 100% of the Moon is Illuminated
Aug 20
Full
Aug 20
Full
Aug 28
Last Quarter
Sep 5
New
Sep 12
First Quarter

Hourly Weather History & Observations

Time (EDT) Temp. Heat Index Dew Point Humidity Pressure Visibility Wind Dir Wind Speed Gust Speed Precip Events Conditions
12:58 AM 66.4 °F - 61.5 °F 84% 29.97 in 10.0 mi West 5.8 mph - N/A   Scattered Clouds
1:58 AM 65.7 °F - 61.2 °F 85% 29.97 in 10.0 mi West 3.5 mph - N/A   Partly Cloudy
2:58 AM 65.8 °F - 61.0 °F 84% 29.98 in 10.0 mi West 2.3 mph - N/A   Clear
3:58 AM 64.0 °F - 60.6 °F 89% 29.98 in 10.0 mi WNW 3.5 mph - N/A   Clear
4:58 AM 62.8 °F - 60.3 °F 91% 30.00 in 10.0 mi WNW 2.3 mph - N/A   Clear
5:58 AM 63.0 °F - 61.0 °F 93% 30.02 in 10.0 mi West 2.3 mph - N/A   Clear
6:58 AM 63.9 °F - 61.9 °F 93% 30.03 in 10.0 mi WNW 3.5 mph - N/A   Clear
7:58 AM 67.5 °F - 61.5 °F 81% 30.04 in 10.0 mi West 2.3 mph - N/A   Clear
8:58 AM 71.8 °F - 62.2 °F 72% 30.05 in 10.0 mi WNW 3.5 mph - N/A   Clear
9:58 AM 75.6 °F - 64.2 °F 68% 30.06 in 10.0 mi WSW 4.6 mph - N/A   Clear
10:58 AM 78.8 °F - 62.4 °F 57% 30.06 in 10.0 mi South 5.8 mph - N/A   Clear
11:58 AM 81.3 °F 82.5 °F 62.6 °F 53% 30.05 in 10.0 mi Variable 1.2 mph - N/A   Clear
12:58 PM 83.3 °F 84.3 °F 62.8 °F 50% 30.05 in 10.0 mi SW 5.8 mph - N/A   Partly Cloudy
1:58 PM 84.2 °F 84.4 °F 60.6 °F 45% 30.04 in 10.0 mi Variable 1.2 mph - N/A   Partly Cloudy
2:58 PM 83.5 °F 83.2 °F 58.8 °F 43% 30.03 in 10.0 mi WSW 5.8 mph - N/A   Scattered Clouds
3:58 PM 86.2 °F 85.4 °F 58.6 °F 39% 30.03 in 10.0 mi WSW 6.9 mph - N/A   Scattered Clouds
4:58 PM 83.5 °F 84.3 °F 62.6 °F 49% 30.03 in 10.0 mi SW 5.8 mph - N/A   Partly Cloudy
5:58 PM 83.5 °F 83.7 °F 60.4 °F 46% 30.03 in 10.0 mi WSW 5.8 mph - N/A   Clear
6:58 PM 79.3 °F - 65.1 °F 62% 30.04 in 10.0 mi SSE 4.6 mph - N/A   Clear
7:58 PM 72.3 °F - 63.3 °F 73% 30.05 in 10.0 mi SSE 5.8 mph - N/A   Partly Cloudy
8:39 PM 69.8 °F - 62.6 °F 78% 30.05 in 10.0 mi SSE 4.6 mph - N/A   Clear
8:58 PM 70.2 °F - 63.1 °F 78% 30.07 in 10.0 mi Calm Calm - N/A   Clear
9:09 PM 69.8 °F - 62.6 °F 78% 30.06 in 10.0 mi Calm Calm - N/A   Clear
9:58 PM 70.7 °F - 63.5 °F 78% 30.08 in 10.0 mi SW 2.3 mph - N/A   Clear
10:58 PM 65.7 °F - 63.7 °F 93% 30.07 in 10.0 mi SW 2.3 mph - N/A   Clear
11:58 PM 66.0 °F - 65.7 °F 99% 30.08 in 10.0 mi West 2.3 mph - N/A   Clear